Vertical_Velocity
-1 -2 2 5 -1 2 -1 2 1 1 -7 1 -1 3 3 11 1 14 -13 -8 -3 -0 3 2 0 1 -1 -0 -1 -0 2 -1 -2 -2 -2 0 1 -0 -1 1 -1 -1 -3 -1 1 -0 -1
-0 -0 2 3 -5 -4 8 3 -5 -1 -1 1 -5 -4 3 -6 -11 -4 0 -2 -4 -1 3 2 -2 -1 -2 -0 0 2 0 -1 1 1 -1 1 0 -0 -1 -0 -1 -1 -3 -1 0 -3 1
2 -2 0 -2 -5 -5 7 2 5 -1 -0 1 -4 1 -9 12 10 -1 2 1 -0 1 2 -1 -1 0 0 -1 -1 -2 -1 -0 -1 -1 -0 0 -1 -1 -1 -0 -1 0 -4 -1 -1 -4 -4
1 -4 -2 -3 -4 -9 2 -2 -3 0 -1 3 12 13 5 10 3 2 5 -2 1 -0 1 2 -0 -2 -2 -1 -1 -2 -2 0 -2 -2 -1 -2 -2 -2 -3 -1 -3 -2 -3 -2 -2 -4 0
2 -1 -5 -2 -2 -5 -11 -4 -6 -1 -3 -5 1 9 6 3 14 -5 -1 1 3 4 2 3 2 1 3 -1 -1 2 -0 -1 -0 -0 1 -1 -0 -1 1 -2 -2 -0 -1 -1 -4 -1 -1
1 4 -4 -6 2 -1 -9 -1 -9 -1 6 -9 6 5 1 1 1 5 5 3 4 -2 -0 0 0 2 2 1 2 1 -0 -2 1 0 -1 -2 -1 -1 -0 -1 -0 -2 -2 -0 -3 3 -0
-1 -1 4 -3 -3 3 3 -6 -1 -1 -3 -17 -6 1 -11 -0 -6 -8 3 0 2 -1 1 -0 -1 -1 -1 -1 0 -1 0 -1 -0 0 -0 0 -1 1 0 -1 -1 -1 -2 1 -4 -5 5
-3 4 -2 -2 -5 2 3 -8 -1 -5 -5 -3 -4 -5 -4 1 -2 -1 -6 3 1 3 -1 -5 -3 -3 -0 2 1 0 0 -1 -1 0 0 -2 -2 0 -0 -2 -1 -2 -1 -1 -3 -8 1
-0 -3 3 3 -9 0 6 10 1 -2 5 -6 -2 -5 -3 -3 -2 -2 -7 0 -2 -3 -0 -0 -1 1 -0 -1 -1 -1 -0 0 -0 -0 -1 -2 0 -0 -1 -2 -3 -2 -2 -2 1 -1 -2
-2 -1 -1 4 7 -12 9 1 -11 -8 -12 3 -1 -6 2 5 -1 4 -9 -3 2 -2 -1 1 1 1 1 -1 -2 -1 -0 -0 -1 -2 -1 -0 -0 -2 -2 -1 -2 -1 -3 -1 -0 1 1
-2 -1 0 1 5 -1 -5 -9 4 -8 -2 -2 2 -8 -4 -9 -4 -2 -3 -1 0 -4 -0 3 1 -2 0 -0 2 -1 0 -0 -0 -1 -1 -4 -1 -2 -4 -4 -3 -1 -1 -1 -2 1 -2
-2 -1 -1 -2 -0 1 6 -9 -4 -3 -4 -3 -3 -5 0 -5 -2 -2 -2 1 -1 -5 -2 -4 -3 -1 -2 -2 -1 -4 -3 -2 -2 -2 -2 -2 -1 -0 -0 0 1 -1 -2 -1 -1 -1 -4
1 -2 -0 -3 -2 -2 -1 4 -1 -4 -3 -4 -4 -4 1 -1 0 1 -1 -3 0 1 0 1 1 1 -0 -1 -0 -1 -2 -3 -3 -2 -0 -1 -1 -0 -1 -2 -1 1 -0 -2 -5 -5 -6
-0 1 -2 0 -3 -3 -1 -4 -4 2 1 -2 -4 -3 -0 0 -0 -3 0 -5 1 -2 -1 0 -1 -1 -1 -1 -1 -3 -2 -1 -1 -0 -0 -1 -1 -1 -2 -2 -2 -4 -4 -4 -1 -2 -4
2 -0 -2 -1 1 -2 -2 -4 -3 -4 -4 -2 -1 -0 -2 -4 -3 -2 -1 0 -6 -1 -3 -2 -3 -1 -1 -1 -2 -2 -2 -2 -2 -0 -0 -1 -1 -2 -1 -1 0 -1 -2 -0 -0 -2 -2
3 1 0 0 0 0 -2 -2 -0 -6 -5 -6 -5 -7 -5 -3 -3 -2 -1 -5 -2 -1 -3 -1 -1 -3 -1 -1 -1 0 0 -0 -2 -1 -1 -1 -1 -0 -0 -1 -1 -1 0 3 -2 -3 -2
-2 1 1 -1 0 2 1 0 -1 0 -1 0 -1 -3 1 -1 -0 -2 -3 -1 -0 1 -0 1 0 -0 1 2 0 0 -1 -0 -0 -0 -0 -0 0 1 1 0 1 1 1 -0 -1 -1 -4
-1 -3 1 -0 -1 -0 2 1 0 1 -0 -1 -2 -3 -1 -1 -1 -1 -4 -1 -2 -1 -1 -2 -2 1 2 3 1 -1 -2 0 -1 -0 -0 1 2 -1 -1 -1 -1 -1 1 0 -2 -1 -2
-2 -1 -3 1 0 -1 -1 1 0 -0 2 1 1 1 -1 -2 -0 2 2 3 3 1 -0 -1 -0 -3 -3 -4 -4 -4 -1 1 2 0 2 0 -2 -3 -4 -3 -1 -2 -3 -1 1 -0 1
-2 -1 -2 -1 0 -1 -1 -1 0 0 -0 0 1 1 1 1 0 -1 1 2 -1 -0 1 1 1 -1 -1 -1 -1 -1 -1 -1 -1 -2 -2 -2 -0 -1 -2 -0 -3 -4 -5 -3 -4 -4 1
1 0 1 -1 -2 -1 -2 0 -1 1 -1 -0 1 1 2 1 0 1 0 -1 -0 -0 -0 -1 -2 -3 -1 1 2 1 0 -1 -1 -1 -2 -0 -1 -2 -3 0 -0 -0 0 -0 1 -4 -1
1 0 -1 -0 -0 -1 -1 -2 0 -2 0 0 0 -0 -0 2 3 -0 -0 -1 -0 -0 -1 -3 -1 -1 -1 -2 -2 -2 -0 1 -1 1 0 1 0 1 6 -5 -3 1 -3 -0 -1 -3 -1
-1 -0 0 -0 -0 1 -2 1 -1 -0 -2 -1 0 -1 -0 1 -0 1 0 3 1 2 -1 -2 -3 1 -2 -2 -1 -1 -0 -0 -1 1 0 1 -0 -3 3 -0 -1 2 1 -0 3 -1 -3
-2 -1 -0 1 -0 -1 1 -2 -1 -1 -0 -0 -0 2 2 -1 0 1 0 -1 1 0 2 2 1 1 -0 0 1 2 -0 -1 -1 -1 -1 -3 -3 -2 -5 -2 -4 3 0 1 0 1 -3
-1 -2 -2 -1 1 1 -1 1 -2 -0 -0 1 0 -1 -3 -2 -0 -0 1 1 -0 1 3 0 -1 1 -1 0 -0 2 1 1 -3 -0 1 0 -1 -4 -1 4 1 6 -4 -3 -2 9 1
-2 -0 -2 -1 -2 0 -2 -1 1 -1 -0 0 0 5 2 0 -7 -2 -0 -0 -1 -2 0 2 -2 -1 -1 -1 0 1 -1 1 -1 2 1 0 -1 -2 -5 -6 0 -1 1 -2 -1 0 -3
-2 -0 0 -1 -1 -1 -1 1 -0 1 -1 -0 0 -1 -0 2 4 3 -2 -1 -0 -3 -0 0 1 -1 -2 1 2 2 5 -0 1 3 2 -2 -4 -3 -7 -12 20 -2 -8 -3 -3 2 0
-2 -4 -3 1 0 1 1 -1 -0 0 0 0 -0 1 1 5 -5 0 1 -0 2 1 -1 -1 1 2 0 -1 -1 -2 1 -1 4 -2 -0 -2 -5 -2 -2 -7 3 3 -4 -1 -4 1 1
3 -1 -2 0 2 2 -1 -1 -2 -1 -2 -2 -3 -2 1 6 2 2 1 -2 -0 -0 1 3 -2 -1 -3 -1 2 1 -0 -0 1 2 1 -5 -6 -6 -5 4 -4 -2 4 -6 -1 0 7
Height
5647 5636 5625 5618 5615 5613 5610 5608 5609 5611 5611 5612 5617 5624 5636 5645 5652 5661 5674 5686 5695 5704 5716 5727 5738 5747 5756 5765 5771 5777 5782 5787 5792 5796 5800 5803 5805 5807 5809 5811 5813 5815 5816 5817 5818 5818 5817
5653 5640 5628 5620 5619 5620 5618 5616 5616 5618 5621 5620 5625 5632 5643 5650 5661 5671 5681 5690 5698 5706 5716 5727 5737 5746 5755 5765 5770 5776 5781 5786 5790 5794 5797 5800 5801 5803 5806 5807 5808 5810 5811 5812 5812 5811 5811
5661 5647 5634 5627 5625 5625 5625 5624 5626 5626 5626 5630 5638 5646 5650 5658 5668 5680 5688 5694 5699 5706 5715 5727 5737 5746 5754 5764 5768 5774 5778 5783 5788 5791 5794 5797 5798 5801 5802 5803 5803 5804 5805 5806 5805 5805 5804
5672 5658 5645 5639 5634 5632 5633 5634 5634 5637 5638 5640 5652 5653 5660 5667 5677 5687 5693 5698 5702 5709 5717 5727 5737 5746 5753 5761 5767 5772 5777 5781 5784 5788 5790 5793 5794 5796 5796 5798 5798 5799 5799 5799 5799 5799 5798
5686 5673 5659 5651 5647 5648 5646 5644 5643 5645 5647 5652 5657 5664 5673 5679 5688 5694 5701 5706 5710 5714 5721 5730 5739 5747 5754 5761 5766 5770 5775 5779 5781 5784 5786 5788 5789 5790 5791 5792 5793 5793 5793 5792 5791 5790 5789
5699 5688 5676 5667 5663 5659 5658 5655 5656 5656 5657 5663 5671 5677 5684 5690 5696 5701 5708 5712 5716 5720 5725 5731 5740 5749 5754 5760 5764 5768 5771 5775 5777 5779 5782 5783 5784 5785 5785 5786 5786 5786 5785 5784 5783 5783 5781
5714 5702 5692 5683 5675 5671 5668 5670 5670 5671 5671 5676 5683 5689 5696 5700 5704 5709 5716 5719 5724 5726 5729 5735 5743 5749 5755 5759 5763 5766 5769 5772 5774 5776 5777 5778 5779 5779 5779 5779 5779 5780 5779 5778 5777 5776 5775
5728 5718 5707 5699 5690 5684 5683 5684 5682 5683 5687 5693 5698 5704 5708 5714 5716 5720 5724 5727 5731 5736 5738 5744 5748 5752 5756 5759 5762 5764 5767 5770 5771 5772 5773 5775 5774 5774 5775 5775 5775 5774 5774 5773 5771 5769 5768
5739 5732 5724 5715 5706 5698 5693 5692 5696 5701 5703 5707 5713 5718 5722 5726 5730 5731 5733 5736 5738 5742 5747 5750 5753 5756 5759 5761 5763 5765 5767 5768 5769 5770 5770 5771 5772 5772 5771 5771 5771 5770 5768 5767 5766 5764 5763
5754 5744 5740 5732 5725 5716 5711 5711 5715 5717 5721 5723 5726 5729 5732 5735 5739 5740 5742 5745 5746 5747 5752 5754 5755 5758 5760 5762 5764 5764 5765 5767 5767 5768 5769 5769 5769 5769 5768 5767 5766 5765 5764 5763 5763 5762 5760
5767 5759 5752 5747 5743 5737 5733 5729 5726 5732 5733 5734 5736 5737 5738 5742 5746 5749 5750 5751 5752 5753 5754 5756 5756 5758 5759 5761 5762 5763 5764 5765 5766 5767 5768 5767 5766 5766 5765 5764 5764 5764 5763 5762 5761 5760 5758
5779 5772 5766 5760 5754 5752 5750 5747 5745 5742 5742 5742 5743 5746 5747 5749 5751 5753 5753 5754 5755 5756 5755 5757 5758 5759 5761 5762 5763 5763 5764 5765 5765 5765 5765 5765 5764 5764 5764 5763 5763 5763 5762 5761 5759 5758 5757
5788 5783 5777 5772 5767 5762 5760 5759 5756 5756 5755 5754 5754 5755 5756 5756 5757 5756 5756 5756 5757 5755 5758 5758 5759 5760 5761 5762 5763 5764 5764 5765 5765 5765 5765 5765 5764 5764 5764 5764 5763 5762 5760 5759 5758 5756 5755
5794 5791 5787 5782 5777 5773 5769 5766 5764 5764 5763 5762 5762 5761 5761 5760 5759 5759 5759 5759 5759 5758 5759 5760 5761 5762 5763 5763 5764 5765 5765 5765 5765 5765 5765 5765 5765 5764 5763 5763 5762 5760 5759 5757 5755 5754 5753
5799 5795 5793 5789 5786 5783 5780 5777 5772 5770 5768 5766 5765 5765 5765 5764 5763 5763 5763 5764 5762 5763 5764 5764 5764 5765 5764 5765 5765 5765 5766 5766 5766 5766 5766 5765 5765 5764 5763 5762 5761 5759 5757 5756 5754 5752 5751
5804 5799 5797 5794 5791 5789 5787 5785 5782 5779 5777 5775 5773 5771 5770 5769 5769 5768 5769 5768 5767 5767 5767 5767 5768 5768 5768 5768 5768 5768 5768 5768 5768 5767 5766 5766 5765 5763 5762 5761 5760 5758 5757 5755 5753 5751 5750
5806 5802 5800 5797 5794 5792 5791 5789 5787 5784 5782 5781 5779 5778 5776 5775 5775 5775 5772 5772 5771 5770 5770 5771 5771 5771 5771 5771 5771 5771 5771 5771 5769 5768 5767 5766 5765 5765 5762 5760 5759 5758 5756 5754 5752 5750 5748
5805 5803 5801 5799 5797 5795 5793 5792 5791 5789 5787 5786 5784 5782 5780 5779 5779 5778 5777 5777 5776 5776 5775 5775 5775 5774 5774 5774 5774 5773 5772 5771 5770 5769 5768 5766 5765 5763 5763 5761 5759 5757 5755 5754 5752 5751 5748
5805 5802 5801 5800 5798 5796 5794 5792 5792 5791 5790 5789 5787 5786 5784 5783 5782 5780 5779 5779 5779 5779 5779 5778 5777 5777 5777 5775 5775 5774 5773 5771 5770 5769 5768 5767 5766 5764 5762 5762 5759 5757 5755 5753 5751 5749 5747
5805 5802 5799 5797 5797 5796 5794 5792 5791 5790 5790 5790 5789 5788 5787 5785 5784 5784 5783 5782 5781 5779 5779 5779 5778 5778 5777 5776 5775 5774 5772 5771 5770 5768 5767 5765 5764 5763 5762 5760 5759 5756 5754 5751 5749 5746 5745
5803 5801 5798 5795 5793 5793 5793 5791 5790 5788 5787 5788 5787 5787 5787 5786 5785 5784 5783 5782 5782 5781 5780 5779 5778 5776 5775 5775 5774 5773 5772 5771 5769 5768 5766 5764 5763 5761 5759 5757 5755 5753 5751 5749 5746 5743 5741
5800 5798 5795 5792 5790 5788 5788 5788 5787 5786 5785 5784 5784 5783 5784 5783 5783 5783 5782 5781 5780 5779 5779 5777 5776 5775 5774 5773 5772 5770 5769 5767 5767 5765 5763 5762 5760 5758 5757 5753 5751 5750 5746 5744 5742 5739 5736
5794 5793 5791 5788 5786 5784 5783 5783 5782 5782 5782 5780 5780 5780 5780 5779 5779 5778 5778 5778 5777 5776 5775 5774 5773 5772 5770 5769 5768 5767 5765 5764 5763 5761 5759 5758 5756 5754 5754 5750 5748 5747 5742 5739 5736 5732 5730
5786 5785 5784 5783 5781 5778 5777 5776 5776 5776 5776 5777 5776 5775 5774 5774 5773 5773 5772 5772 5771 5771 5771 5769 5768 5767 5767 5765 5765 5763 5761 5759 5758 5756 5754 5752 5750 5747 5747 5745 5743 5739 5735 5731 5729 5727 5722
5777 5777 5777 5775 5774 5772 5770 5770 5769 5768 5769 5770 5771 5771 5770 5769 5768 5767 5767 5766 5765 5764 5764 5763 5761 5762 5759 5758 5757 5757 5756 5754 5752 5750 5747 5744 5741 5737 5735 5734 5736 5734 5726 5722 5719 5723 5714
5767 5767 5767 5767 5766 5765 5764 5763 5761 5761 5761 5762 5762 5763 5763 5763 5762 5761 5760 5760 5759 5758 5757 5755 5754 5753 5752 5751 5748 5747 5747 5746 5744 5743 5741 5737 5734 5732 5728 5724 5725 5723 5719 5715 5713 5711 5708
5754 5755 5756 5757 5756 5756 5755 5755 5755 5754 5754 5754 5754 5755 5755 5754 5753 5754 5753 5752 5751 5750 5749 5748 5746 5744 5742 5741 5740 5739 5739 5737 5736 5736 5733 5730 5726 5724 5719 5716 5719 5713 5710 5708 5707 5706 5703
5741 5743 5745 5746 5747 5747 5746 5746 5747 5746 5746 5746 5745 5745 5747 5748 5745 5744 5744 5742 5742 5740 5740 5739 5738 5736 5733 5733 5732 5730 5729 5728 5727 5727 5724 5721 5716 5715 5711 5709 5708 5704 5701 5700 5698 5697 5694
5728 5729 5732 5734 5737 5737 5737 5737 5737 5738 5738 5739 5738 5736 5735 5738 5740 5736 5735 5732 5732 5729 5729 5729 5728 5725 5723 5722 5720 5718 5718 5719 5717 5715 5714 5711 5709 5703 5701 5705 5701 5692 5688 5687 5686 5685 5683